Regional Weather Roundup
Issued by NWS New Orleans/Baton Rouge, LA

Home | Current Version | Previous Version | Text Only | Print | Product List | Glossary On
Versions: 1 2 3 4 5 6 7 8 9 10 11 12 13 14 15 16 17 18 19 20 21 22 23 24 25 26 27
000
ASUS44 KLIX 190312
RWRLIX
NEW ORLEANS REGIONAL WEATHER ROUNDUP
NATIONAL WEATHER SERVICE NEW ORLEANS LA
900 PM CST SAT NOV 18 2017

NOTE: "FAIR" INDICATES FEW OR NO CLOUDS BELOW 12,000 FEET WITH NO
      SIGNIFICANT WEATHER AND/OR OBSTRUCTIONS TO VISIBILITY.
      SKY/WX - SKY CONDITION AND SIGNIFICANT WEATHER.
      TMP - AIR TEMPERATURE.     DP    - DEWPOINT TEMPERATURE.
      RH  - RELATIVE HUMIDITY.   PRES  - PRESSURE.
      HI  - HEAT INDEX.          WCI   - WIND CHILL INDEX.

*  THESE STATIONS ARE NOT NWS OR FAA STATIONS AND ARE NOT UNDER
   NWS QUALITY CONTROL.

LAZ038-040-048-061>063-065>067-069-190400-
SOUTHEAST LOUISIANA

CITY           SKY/WX    TMP DP  RH WIND       PRES   REMARKS
N.O. INTL ARPT PTCLDY    73  71  93 SW9G20    29.90R
N.O. LAKEFRONT CLEAR     73  69  87 SW15      29.89R
N.O. DOWNTOWN*   N/A     73  68  84 SW8       29.91R
RESERVE*         N/A     73  69  87 NW8       29.92R
SLIDELL        MOCLDY    73  68  84 VRB5      29.87S
BATON ROUGE    PTCLDY    66  52  60 N14G23    29.97R
BOOTHVILLE     PTCLDY    76  72  87 SW13      29.92S
BELLE CHASSE   CLEAR     72  72 100 SW12      29.89
BOGALUSA*      NOT AVBL
GALLIANO*      CLEAR     73  68  83 SW9       29.92R
NEW ROADS*     CLOUDY    64  48  54 NW17G25   30.00R
GONZALES*      CLOUDY    66  61  82 N9        29.95R
HAMMOND*       MOCLDY    64  59  82 N14G22    29.95R
HOUMA*         CLEAR     72  69  91 W3        29.92R
PORT FOURCHON* NOT AVBL

$$

MSZ070-080>082-190400-
SOUTHERN MISSISSIPPI

CITY           SKY/WX    TMP DP  RH WIND       PRES   REMARKS
MCCOMB         CLOUDY    61  48  62 NW26G35   29.98R
GULFPORT       MOCLDY    74  69  85 SW8G18    29.86S
BILOXI         PTCLDY    71  68  89 SW14G21   29.87R
PASCAGOULA     MOCLDY    73  67  81 SW10G17   29.87S

$$

COASTAL OBSERVATIONS
LAKE AND NEARSHORE STATIONS

STATION/POSITION TIME  TEMP    WIND        PRES    WAVE
                       AIR SEA DIR/SP/G            HT/PER
                 (UTC) (F)     (DEG/KT/KT) (MB)    (FT/S)

OFFSHORE STATIONS

STATION/POSITION TIME  TEMP    WIND        PRES    WAVE
                       AIR SEA DIR/SP/G            HT/PER
                 (UTC) (F)     (DEG/KT/KT) (MB)    (FT/S)
64 S DAUPHIN ISL 0250   77 78  230/ 17/ 21 1013.1    5/ 6

$$





USA.gov is the U.S. government's official web portal to all federal, state and local government web resources and services.